Погода в Мунда

Соломоновы острова     8°19′18″S   157°16′30″E
темп.,
°C
ветер,
м/с
пор.,
м/с
влажн.,
%
обл.,
%
осадки,
мм/ч
давл.,
гПа
погр.,
м
9 марта, вт
вт923:00+26всв1281100 0.6 1012198
02:00+26св2283100 0.0 1010289
05:00+26всв228386 0.1 1009290
08:00+27св228229 0.0 1011294
11:00+31ссв236632 0.0 1011967
14:00+30ссв237167 0.4 1009863
17:00+29всв127776 2.3 1009737
20:00+27с118162 0.3 1011266
10 марта, ср
ср1023:00+27ссв228456 0.4 1012150
02:00+26всв22854 0.0 1010156
05:00+25в118537 0.0 1010134
08:00+27в11827 0.0 1012128
11:00+30юв13634 0.3 1012718
14:00+29юв2374100 4.1 1009673
17:00+28в1278100 7.6 1009378
20:00+27всв1181100 2.1 1011150
11 марта, чт
чт1123:00+26ююв3584100 8.1 1012215
02:00+26ююв248187 1.1 1010236
05:00+25вюв469183 5.7 1009309
08:00+25всв1286100 0.9 1012108
11:00+28вюв117796 3.1 1012214
14:00+26ююз1188100 1.8 1010170
17:00+25с1189100 2.8 1010237
20:00+24всв2293100 3.5 1012134
12 марта, пт
пт1223:00+25в2388100 4.0 1012128
02:00+25ссв348497 0.0 1010223
05:00+26всв228399 0.0 1010320
08:00+26св228397 0.0 1012379
11:00+28ссв127686 1.6 1012673
14:00+28ссз1277100 6.0 1009472
17:00+28с3479100 13.9 1009472
20:00+26св2281100 5.6 1011185
13 марта, сб
сб1323:00+26ссв3484100 10.4 1011279
02:00+26ссв578372 3.0 1010414
05:00+26ссв478154 3.0 1009416
08:00+27ссв468057 0.0 1010494
11:00+29ссв456942 0.0 1011973
14:00+30ссз34658 0.3 1008790
17:00+29ссз01694 0.8 1008809
20:00+27св238013 0.1 1010443